Weather History for KGIF - October, 2013

Change the Weather History Date:

Wednesday, October 9, 2013

  Actual Average Record
Temperature  
Mean Temperature 76 °F -  
Max Temperature 82 °F 87 °F 93 °F (1951)
Min Temperature 68 °F 66 °F 51 °F (2000)
Cooling Degree Days 10    
Growing Degree Days 26 (Base 50)    
Moisture  
Dew Point 67 °F    
Average Humidity 78    
Maximum Humidity 90    
Minimum Humidity 60    
Precipitation  
Precipitation 0.00 in - - ()
Sea Level Pressure  
Sea Level Pressure 30.01 in    
Wind  
Wind Speed 10 mph (North)    
Max Wind Speed 14 mph    
Max Gust Speed 20 mph    
Visibility 10 miles    
Events      
Averages and records for this station are not official NWS values.
T = Trace of Precipitation, MM = Missing Value Source: NWS Daily Summary

Daily Weather History Graph

Daily Weather History Graph

Search for Another Location

Airport or City:

Trip Planner

Search our weather history database for the weather conditions in past years. The results will help you decide how hot, cold, wet, or windy it might be!

Date:

Astronomy

Oct. 09, 2013 Rise Set
Actual Time 7:24 AM EDT 7:03 PM EDT
Civil Twilight 7:00 AM EDT 7:27 PM EDT
Nautical Twilight 6:33 AM EDT 7:54 PM EDT
Astronomical Twilight 6:06 AM EDT 8:21 PM EDT
Moon 11:58 AM EDT (10/9) 10:56 PM EDT (10/9)
Length of Visible Light 12h 26m
Length of Day
11h 39m
Waxing Crescent, 25% of the Moon is Illuminated
Oct 9
Waxing Crescent
Oct 11
First Quarter
Oct 18
Full
Oct 26
Last Quarter
Nov 3
New

Hourly Weather History & Observations

Time (EDT) Temp. Heat Index Dew Point Humidity Pressure Visibility Wind Dir Wind Speed Gust Speed Precip Events Conditions
12:53 AM 73.9 °F - 69.1 °F 85% 29.96 in 10.0 mi NNE 10.4 mph 19.6 mph N/A   Overcast
1:53 AM 73.9 °F - 69.1 °F 85% 29.97 in 10.0 mi NNE 10.4 mph - N/A   Overcast
2:53 AM 73.0 °F - 69.1 °F 87% 29.97 in 10.0 mi North 8.1 mph - N/A   Overcast
3:53 AM 73.0 °F - 69.1 °F 87% 29.96 in 10.0 mi North 9.2 mph - N/A   Overcast
4:53 AM 73.0 °F - 68.0 °F 84% 29.96 in 10.0 mi North 9.2 mph - N/A   Overcast
5:53 AM 73.0 °F - 68.0 °F 84% 29.98 in 10.0 mi North 10.4 mph - N/A   Overcast
6:37 AM 73.0 °F - 68.0 °F 84% 29.99 in 10.0 mi NNE 6.9 mph - N/A   Overcast
6:53 AM 72.0 °F - 68.0 °F 87% 29.99 in 10.0 mi NNE 8.1 mph - N/A   Overcast
7:53 AM 72.0 °F - 68.0 °F 87% 30.01 in 10.0 mi North 11.5 mph - N/A   Overcast
8:53 AM 71.1 °F - 66.9 °F 87% 30.02 in 10.0 mi North 13.8 mph - N/A   Overcast
9:53 AM 71.1 °F - 66.9 °F 87% 30.04 in 10.0 mi North 9.2 mph - N/A   Overcast
10:53 AM 73.0 °F - 66.0 °F 79% 30.06 in 10.0 mi North 10.4 mph - N/A   Overcast
11:28 AM 73.9 °F - 66.9 °F 79% 30.06 in 10.0 mi North 10.4 mph - N/A   Overcast
11:53 AM 75.0 °F - 66.9 °F 76% 30.06 in 10.0 mi North 9.2 mph - N/A   Overcast
12:53 PM 78.1 °F - 66.9 °F 68% 30.05 in 10.0 mi NNW 9.2 mph - N/A   Overcast
1:53 PM 80.1 °F 82.3 °F 66.9 °F 64% 30.02 in 10.0 mi North 10.4 mph - N/A   Mostly Cloudy
2:40 PM 81.0 °F 83.3 °F 66.9 °F 62% 30.01 in 10.0 mi North 11.5 mph - N/A   Mostly Cloudy
2:53 PM 80.1 °F 82.3 °F 66.9 °F 64% 30.00 in 10.0 mi NNW 8.1 mph - N/A   Mostly Cloudy
3:08 PM 82.0 °F 84.5 °F 66.9 °F 60% 30.01 in 10.0 mi North 8.1 mph - N/A   Mostly Cloudy
3:19 PM 81.0 °F 83.3 °F 66.9 °F 62% 30.01 in 10.0 mi NNW 11.5 mph - N/A   Scattered Clouds
3:53 PM 79.0 °F - 66.9 °F 66% 30.00 in 10.0 mi NNW 11.5 mph - N/A   Scattered Clouds
4:53 PM 80.1 °F 82.1 °F 66.0 °F 62% 30.00 in 10.0 mi North 10.4 mph - N/A   Partly Cloudy
5:53 PM 80.1 °F 82.1 °F 66.0 °F 62% 30.00 in 10.0 mi North 8.1 mph - N/A   Partly Cloudy
6:53 PM 73.9 °F - 66.0 °F 76% 30.01 in 10.0 mi NNE 9.2 mph - N/A   Scattered Clouds
7:53 PM 72.0 °F - 66.0 °F 81% 30.03 in 10.0 mi North 9.2 mph - N/A   Clear
8:53 PM 70.0 °F - 64.9 °F 84% 30.03 in 10.0 mi North 10.4 mph - N/A   Clear
9:53 PM 69.1 °F - 64.9 °F 87% 30.05 in 10.0 mi North 9.2 mph - N/A   Clear
10:53 PM 69.1 °F - 64.9 °F 87% 30.06 in 10.0 mi North 10.4 mph - N/A   Clear
11:53 PM 68.0 °F - 64.9 °F 90% 30.05 in 10.0 mi NNE 8.1 mph - N/A   Clear